Theta_e
306 306 306 306 307 307 308 308 308 309 309 309 309 310 310 310 310 311 311 311 312 312 313 313 313 313 313 313 313 313 314 314 315 315 316 317 317 317 317 318 317 318 321 323 325 326 325 327 338 345 347 351 353 354 355 356 357 354 355 354 349 348 347 348 349 343 342 341 342 346 349 350 350 351 352 352 352 352 352 351 351 352 350 350 351 350 351 351
307 307 307 307 307 307 307 307 308 308 308 309 309 309 309 310 310 310 311 311 311 312 312 313 313 313 313 313 314 314 314 314 315 316 318 320 320 320 318 317 317 318 320 324 325 325 325 326 337 346 347 350 354 355 356 356 357 355 354 352 349 349 346 344 345 343 341 340 341 344 348 350 350 351 352 352 352 352 352 352 351 352 352 352 352 351 352 352
308 307 307 307 307 307 307 307 307 307 307 308 308 309 309 309 310 310 310 310 311 312 312 313 313 312 313 313 314 314 314 314 315 318 322 324 324 322 320 318 317 318 322 325 325 325 325 324 336 346 347 349 353 354 355 355 355 354 353 353 350 348 345 342 342 341 340 339 340 342 348 350 349 352 351 351 351 351 352 352 352 353 353 353 352 352 353 353
309 308 308 308 308 307 307 307 307 308 308 308 308 308 308 309 309 310 310 310 311 311 312 313 313 312 312 313 313 313 313 314 317 321 325 325 322 320 321 319 317 320 322 323 325 325 326 324 334 346 347 347 349 350 351 351 350 349 352 353 349 345 344 344 343 342 340 339 341 343 347 349 350 352 350 350 351 351 352 351 351 353 353 353 352 352 353 353
310 310 309 308 308 308 308 308 308 308 308 308 308 308 308 308 309 309 309 310 311 311 312 313 313 312 312 313 313 313 313 315 320 325 326 324 320 318 319 319 320 322 322 324 325 325 327 327 335 346 347 345 346 346 347 348 347 345 346 348 345 343 344 344 343 343 341 340 342 342 346 349 350 351 350 350 352 352 351 350 350 350 350 351 352 353 353 353
312 311 311 310 310 309 309 309 308 308 309 309 309 309 309 309 308 309 309 309 310 311 312 313 313 312 312 312 312 313 313 316 321 323 325 324 320 318 319 320 321 322 323 325 324 324 329 333 338 345 345 344 345 346 346 347 347 346 344 343 342 342 343 343 342 343 342 340 340 342 346 349 348 350 350 350 350 349 349 350 350 348 347 350 353 353 353 353
312 312 312 312 311 311 310 310 309 309 309 309 309 310 310 310 309 309 309 309 309 310 311 312 313 312 312 312 312 313 313 316 320 320 322 323 321 318 319 322 322 324 324 325 325 323 327 336 342 343 343 343 344 344 345 346 346 346 345 343 342 342 341 342 342 342 341 339 339 342 345 347 347 348 350 349 347 348 350 350 349 349 349 352 353 353 353 353
312 312 313 313 313 312 312 312 311 310 310 310 310 310 310 311 310 310 310 309 309 310 311 312 312 312 312 312 312 312 313 317 321 319 320 324 322 318 319 323 324 325 325 325 326 325 326 336 342 341 341 342 343 343 344 345 346 345 345 343 342 341 340 340 340 341 342 340 339 340 342 345 346 346 349 348 347 349 351 351 350 351 351 353 353 354 354 353
312 313 313 313 313 313 313 313 313 312 311 311 311 311 311 311 311 311 311 310 310 309 310 312 312 312 312 311 311 313 316 319 321 319 320 323 323 320 320 324 325 326 326 325 326 325 327 334 339 340 339 338 340 341 341 345 344 343 343 342 340 339 338 337 336 339 341 341 339 336 340 344 343 345 348 347 347 350 351 351 351 352 353 353 354 354 354 353
313 313 313 313 313 314 314 314 314 313 313 312 312 312 311 311 311 311 311 311 310 309 310 311 311 311 311 311 312 315 319 320 320 321 321 321 322 322 322 323 324 324 324 323 323 325 325 327 331 336 337 334 336 337 337 340 341 338 338 337 336 335 335 333 334 338 339 341 339 336 337 338 339 345 350 349 348 350 351 352 352 352 353 353 354 353 354 353
312 312 312 313 313 313 314 314 314 314 314 313 313 313 313 312 311 311 312 312 311 310 310 310 310 310 311 311 313 317 320 320 321 322 323 322 322 322 322 323 323 323 323 322 321 322 322 321 323 329 333 333 334 335 334 336 336 334 332 330 329 329 330 329 330 334 338 340 339 337 338 337 339 343 349 350 349 350 351 352 353 352 353 353 353 353 354 353
311 311 312 312 313 313 314 314 315 315 314 314 315 314 313 312 311 311 312 312 312 311 310 310 310 310 310 310 313 318 320 320 321 322 323 323 321 322 322 322 322 323 323 323 322 322 322 321 321 326 332 334 334 334 333 333 331 329 328 327 328 328 328 328 328 331 337 340 338 337 341 342 343 343 348 351 350 351 352 352 353 352 352 353 353 353 353 353
310 310 311 311 312 312 313 314 314 315 315 315 316 315 313 311 311 311 312 313 313 312 311 310 310 309 310 312 315 319 320 320 320 320 322 322 322 322 322 322 322 322 323 324 324 324 323 321 321 323 328 332 334 333 333 333 329 327 327 326 327 326 327 328 327 331 337 340 338 336 337 341 345 345 349 352 351 351 352 352 352 352 353 353 352 353 353 353
308 309 310 310 311 311 312 313 314 314 315 316 317 315 311 311 311 312 313 313 313 312 311 310 310 309 310 313 316 317 318 319 319 320 321 321 322 323 323 324 322 321 322 323 324 324 324 322 321 322 325 329 332 333 333 331 328 328 327 326 326 323 326 328 328 335 340 338 339 338 336 338 346 349 351 352 351 352 352 352 352 352 353 352 353 353 353 353
307 307 308 309 309 310 311 311 312 314 315 316 316 312 311 313 314 315 315 315 315 314 312 310 310 310 312 314 314 317 317 318 319 320 321 321 321 323 325 326 325 324 323 323 323 323 324 323 323 327 328 327 328 330 331 328 326 327 324 325 326 323 325 328 327 335 342 339 337 338 337 339 348 350 351 352 350 351 351 352 352 352 352 352 352 352 353 353
306 306 307 307 308 309 309 310 311 313 314 316 313 311 314 317 317 317 318 318 319 318 315 312 311 312 316 317 315 318 319 319 320 321 321 321 321 323 326 327 326 325 324 324 324 324 325 325 326 328 329 328 328 328 327 324 325 328 324 322 324 323 324 326 327 332 339 341 338 338 341 345 352 350 349 352 351 351 351 351 351 351 352 352 352 352 352 353
306 306 306 306 307 308 308 309 310 312 315 314 311 312 317 318 318 319 321 319 320 320 315 316 317 316 318 319 318 320 320 320 322 322 323 322 322 322 324 327 327 326 325 324 324 325 326 326 327 328 328 329 328 327 326 323 322 326 325 322 323 323 323 324 328 329 335 343 339 340 345 347 351 351 349 351 351 350 351 350 351 351 351 352 351 351 352 352
306 306 307 307 307 307 308 308 309 311 314 313 311 314 317 317 318 321 322 319 318 319 318 320 321 318 319 320 318 319 320 321 323 324 326 325 324 322 322 325 328 327 326 326 326 326 327 325 326 329 328 328 328 327 324 322 322 322 323 322 322 323 323 324 326 328 336 343 340 341 343 345 350 350 349 351 351 350 350 350 350 351 351 351 351 351 352 352
307 307 307 308 308 308 308 308 308 310 313 312 311 314 315 315 318 321 321 317 315 318 322 323 321 318 319 320 318 319 320 321 324 325 326 326 326 324 321 324 328 327 326 326 326 324 324 324 325 326 326 326 327 326 325 324 324 323 323 322 321 321 323 324 325 328 338 342 340 340 340 344 350 351 350 350 350 350 350 350 350 350 351 351 351 351 351 352
307 307 307 308 308 308 309 308 308 309 312 312 312 314 314 313 315 317 317 315 315 317 319 320 319 319 320 320 319 320 320 321 323 325 326 327 328 325 322 323 325 326 324 324 324 323 323 324 324 324 325 326 326 326 325 325 324 324 323 322 322 321 321 324 326 327 336 341 340 341 340 344 350 351 351 350 350 350 349 350 350 350 351 350 351 351 351 351
306 306 307 307 308 309 310 309 308 309 311 310 311 314 312 311 312 313 312 313 315 315 315 316 317 317 318 319 319 320 319 321 322 325 327 328 328 325 322 322 324 324 323 322 323 323 324 324 323 324 326 328 327 326 325 324 324 324 322 321 321 320 321 324 325 327 333 338 340 342 340 343 349 350 350 350 350 350 350 350 350 350 350 350 351 351 351 351
304 305 305 306 307 308 310 310 309 310 310 309 311 312 310 309 311 311 310 312 314 314 314 315 315 315 316 318 318 317 318 320 321 323 326 327 327 325 322 322 323 323 323 322 323 324 323 323 323 324 326 327 328 328 326 324 324 323 322 321 319 321 322 323 326 327 329 332 339 345 342 341 347 349 349 350 350 349 350 350 350 350 350 350 350 350 351 351
303 303 304 304 305 306 309 309 310 311 310 309 312 311 309 309 311 311 311 312 314 313 314 314 315 315 315 317 317 317 318 319 320 322 325 325 325 325 323 322 322 323 322 322 323 323 321 322 323 323 325 326 326 326 326 325 324 323 322 320 319 321 321 321 325 328 328 330 338 345 342 340 343 347 349 349 349 349 349 350 350 350 349 349 350 350 351 351
303 303 303 303 304 305 307 308 310 311 309 310 312 311 310 310 310 311 311 313 314 313 314 316 315 314 316 317 317 317 319 319 318 322 324 325 324 323 322 322 322 323 322 322 322 322 322 323 323 324 325 326 325 325 326 325 324 323 323 321 320 322 322 322 325 327 329 329 336 340 336 337 341 344 348 348 348 348 347 349 349 349 349 348 349 350 350 350
302 303 303 303 303 304 305 307 310 310 309 311 311 310 310 310 310 310 311 314 316 314 315 316 315 315 316 316 316 317 319 318 318 320 323 325 325 323 322 323 323 323 323 323 322 322 322 322 323 324 325 325 324 325 325 324 323 322 324 323 322 323 323 324 324 325 324 323 334 338 331 334 341 342 346 347 347 348 345 347 347 347 349 348 348 349 349 350
302 302 302 302 303 303 304 305 307 308 308 310 310 309 310 310 310 311 312 316 319 317 317 317 317 318 317 315 315 316 318 318 318 319 320 323 326 324 323 323 323 323 323 323 323 323 323 323 324 325 324 324 325 324 324 324 322 320 323 324 324 323 323 324 323 322 321 322 333 337 331 333 337 337 343 345 345 347 345 345 346 346 347 347 347 348 349 350
302 302 302 302 302 302 303 304 304 306 307 308 308 309 310 310 310 311 314 319 323 320 318 317 317 318 318 316 316 316 317 318 318 318 318 321 325 325 324 324 323 323 323 324 322 323 325 324 324 325 324 324 323 323 324 325 322 321 324 324 324 324 323 323 322 320 323 326 328 330 331 331 332 335 338 342 344 345 344 343 344 344 345 346 346 346 348 349
302 302 302 302 302 302 302 303 303 304 306 307 307 308 310 309 310 312 316 321 326 323 319 317 317 317 317 316 316 317 318 318 317 318 318 321 324 324 324 323 323 323 324 323 321 323 326 325 324 324 324 323 323 323 325 325 323 323 324 324 324 324 323 323 323 321 323 323 319 323 327 326 336 348 340 338 342 342 343 342 342 343 343 344 345 345 347 348
301 301 302 302 302 302 302 302 303 304 305 306 307 308 309 310 311 315 318 321 323 322 321 319 318 317 315 315 315 316 317 318 318 318 318 320 323 323 323 323 322 324 324 323 322 324 326 326 324 324 324 324 323 324 325 324 324 324 323 325 324 323 323 323 324 322 322 321 317 321 324 321 334 351 342 336 340 339 341 341 339 341 341 342 344 343 345 347
301 301 301 301 302 302 302 303 305 305 304 305 307 308 308 311 314 317 320 322 321 321 321 319 318 316 314 314 314 315 315 317 318 317 317 319 322 323 323 323 322 323 324 323 324 325 325 325 325 325 325 324 324 324 323 323 324 324 323 323 322 322 324 324 326 325 320 319 318 319 325 323 325 337 340 337 339 339 340 340 339 339 339 340 342 343 343 344
301 301 301 301 302 302 303 306 308 307 305 305 307 308 309 313 318 319 321 321 320 322 321 318 317 316 316 315 315 315 315 316 317 317 318 319 320 321 322 324 322 321 322 322 323 323 324 325 325 325 324 324 325 323 322 323 323 323 322 321 321 320 321 319 321 323 317 316 320 321 325 324 320 329 340 339 339 340 339 339 339 338 338 338 340 341 342 343
301 301 301 301 301 303 305 307 310 309 306 305 307 309 312 314 315 317 318 319 320 321 319 317 316 316 317 317 317 317 316 317 318 317 319 319 320 321 322 324 323 320 319 319 320 321 322 324 324 325 325 325 324 323 323 322 322 323 321 320 319 316 318 317 316 319 318 319 328 327 322 322 322 330 343 341 339 340 339 339 339 338 337 337 339 340 341 341
301 301 301 301 302 305 307 306 309 310 308 307 308 311 315 316 316 315 315 317 319 318 316 315 315 316 317 318 319 319 316 316 317 318 319 320 321 322 322 324 323 322 322 320 318 318 320 322 323 323 324 324 324 323 321 320 321 321 319 318 317 315 316 317 316 318 319 321 328 328 324 323 324 332 342 341 339 340 339 339 339 338 338 337 338 339 340 341
301 301 302 301 302 307 308 305 307 309 310 310 311 313 315 316 318 317 315 315 316 316 315 315 315 316 318 319 320 320 317 316 317 318 320 320 321 321 321 323 322 323 326 322 318 318 317 320 323 322 323 324 324 323 322 323 322 320 322 320 316 317 319 318 317 319 320 321 324 324 326 326 326 335 346 340 337 339 339 340 340 340 340 338 338 338 338 340
301 301 301 301 303 307 308 304 305 309 312 312 313 314 314 314 316 316 315 316 315 315 315 315 316 317 318 319 320 319 317 318 318 318 319 320 320 321 321 322 322 322 324 321 319 319 317 318 324 323 323 324 324 324 323 323 321 319 322 320 315 321 325 320 322 327 324 322 322 322 330 336 335 340 345 337 338 340 338 340 340 339 341 340 339 339 338 339
301 301 301 302 305 307 306 303 304 309 313 313 313 314 313 312 315 315 315 315 314 314 315 316 317 317 317 320 319 317 317 317 318 317 317 319 319 321 322 322 322 321 322 322 321 321 317 318 325 323 323 325 324 325 324 321 322 321 318 317 319 324 322 317 320 325 320 318 321 324 327 332 333 334 338 336 338 341 339 341 340 339 341 340 340 340 339 339
301 301 301 304 307 305 303 303 305 309 312 313 314 314 312 312 314 315 315 314 314 315 316 317 318 316 317 318 317 316 317 317 317 316 316 318 318 320 321 321 322 321 322 322 322 323 320 319 324 324 323 324 322 324 324 323 324 322 317 317 321 321 321 321 318 317 316 316 321 325 322 322 326 334 343 341 339 340 340 341 341 339 339 339 340 341 340 340
303 301 302 305 306 303 302 303 306 310 313 314 315 316 316 315 315 315 314 314 315 316 315 316 317 316 316 317 316 316 317 317 317 316 316 318 318 319 320 320 320 320 321 321 321 325 322 318 323 326 323 324 324 323 323 323 323 322 321 321 322 318 316 320 320 316 315 314 317 322 323 324 326 334 342 339 338 341 340 340 341 340 339 339 339 341 341 341
303 302 303 304 304 303 303 303 306 311 314 315 315 316 317 315 314 314 314 314 315 316 316 316 316 316 316 316 316 316 316 317 317 316 316 318 318 318 318 319 320 320 320 320 322 324 322 318 319 324 324 323 325 323 320 322 323 323 322 320 323 321 317 318 320 317 318 318 318 317 318 322 329 338 342 340 343 343 338 340 341 338 339 339 338 341 341 342
303 303 304 303 303 304 304 304 309 313 315 316 315 315 315 314 314 315 315 316 316 315 316 316 316 316 316 316 315 316 316 317 317 317 317 317 317 316 315 316 318 319 319 319 321 322 323 320 317 322 325 321 322 323 321 322 323 322 320 318 318 320 319 318 319 319 321 325 325 320 314 321 336 346 345 343 346 343 338 339 340 338 337 338 339 340 341 342
303 304 304 303 303 305 305 307 311 313 314 316 315 315 315 315 315 316 316 316 316 315 315 315 315 315 314 314 314 315 316 317 317 317 317 317 317 316 315 314 315 318 319 320 321 320 321 321 318 319 320 318 321 325 324 324 325 323 321 320 317 318 319 316 317 321 321 323 329 324 314 319 337 343 342 345 347 344 340 338 338 338 336 337 339 340 340 342
303 304 304 302 303 304 306 309 310 310 311 312 312 312 312 313 313 314 315 315 314 313 314 313 313 314 313 314 315 315 316 317 317 318 318 317 317 315 314 314 315 318 320 321 323 323 324 323 319 317 319 320 323 325 325 324 325 326 324 323 321 321 320 314 315 321 320 319 326 326 316 321 341 345 341 345 348 339 333 333 336 337 335 338 339 339 341 341
304 304 303 302 304 304 306 309 310 308 308 308 308 308 310 310 310 311 311 311 311 312 312 311 312 314 314 314 315 315 315 317 317 318 318 317 316 314 313 313 315 319 323 325 327 327 326 324 319 317 320 323 323 324 324 325 325 324 323 325 323 321 320 318 323 327 321 317 320 321 315 319 342 353 344 341 344 337 330 330 333 334 335 338 338 338 341 340
303 303 303 303 304 305 307 308 307 306 306 306 306 307 309 309 310 309 309 309 310 311 311 311 312 314 314 313 314 314 315 317 318 316 315 316 315 313 312 312 314 318 322 326 327 326 325 325 321 317 318 320 321 322 320 322 323 323 324 325 323 324 322 321 328 326 320 319 320 318 315 321 346 362 348 337 340 342 339 332 330 332 334 336 338 338 340 340
303 303 304 303 303 305 306 306 306 305 306 306 306 307 307 308 309 309 308 309 309 310 310 310 311 313 313 312 313 313 313 316 316 314 314 314 314 313 312 312 313 316 321 325 324 322 323 326 323 318 318 318 318 320 323 323 321 322 326 324 323 326 321 319 323 319 320 324 321 317 321 331 347 351 338 334 336 338 341 333 329 333 333 334 337 337 338 340
303 303 304 303 304 304 305 306 305 305 306 306 306 306 307 307 308 308 309 309 309 309 309 309 311 312 312 312 312 312 312 313 313 313 313 313 312 312 311 312 313 315 320 322 320 320 325 328 326 323 323 320 319 324 333 332 322 318 323 323 323 326 322 322 322 318 324 328 321 326 334 328 330 339 338 338 336 329 331 332 329 331 331 332 336 336 337 339
303 303 303 304 304 304 304 305 305 305 306 306 306 306 306 306 307 308 309 309 309 309 308 309 310 310 311 311 312 312 312 312 312 312 313 312 312 311 311 312 313 315 318 317 317 319 324 326 326 325 326 324 321 324 329 329 322 319 322 322 323 325 323 322 320 321 331 326 315 333 348 327 327 347 348 343 339 332 333 334 330 328 328 331 334 335 338 338
303 303 304 304 304 304 304 304 305 305 305 305 305 306 306 306 307 308 309 308 308 308 309 309 309 308 309 310 311 312 312 312 312 313 312 312 311 311 311 312 313 314 314 314 314 317 320 324 325 324 323 323 323 323 323 325 324 322 323 322 322 325 323 321 321 324 332 323 315 334 348 331 329 342 340 339 342 336 332 333 330 328 329 331 332 335 337 337
303 303 304 304 304 304 304 304 305 305 304 304 305 305 305 306 307 307 307 307 307 307 308 309 308 308 308 308 310 313 312 312 313 313 311 311 311 310 311 312 313 312 312 313 314 315 320 326 326 323 322 322 323 324 323 322 324 322 323 324 323 325 323 322 323 325 326 325 323 334 342 334 330 333 332 333 333 329 328 330 332 331 331 331 332 334 336 337
303 303 304 304 304 304 304 304 305 304 304 304 306 305 305 306 306 307 307 307 306 307 308 309 309 308 308 308 309 311 311 312 313 312 311 311 311 310 312 313 312 311 311 312 314 315 319 325 325 321 323 323 322 324 323 321 323 322 323 325 323 324 324 322 323 325 324 324 326 330 334 334 332 332 332 327 323 324 330 333 333 333 332 332 333 334 335 336
303 303 303 303 303 304 304 304 304 304 304 304 305 305 305 305 306 306 306 307 306 307 307 308 309 308 308 308 308 309 309 311 311 311 311 311 311 310 311 312 310 311 311 312 314 315 317 322 323 321 323 324 323 323 323 322 322 320 320 324 323 321 323 322 323 325 324 324 325 326 326 329 331 332 332 329 326 329 336 334 329 329 333 335 335 335 334 335
303 303 303 303 303 304 304 304 304 304 304 304 304 305 305 305 305 306 307 307 307 307 307 307 308 309 308 308 308 308 309 310 310 310 310 310 310 310 310 310 310 311 311 312 315 316 316 319 320 321 324 325 322 322 322 322 321 319 319 323 324 323 323 323 324 326 325 324 324 322 322 327 330 329 329 330 331 333 333 327 325 328 333 336 337 337 335 335
Wind_Speed
15 14 14 15 14 14 14 14 14 15 14 15 15 15 16 16 16 17 17 18 18 18 18 18 18 17 17 18 19 19 19 20 20 21 26 23 16 17 16 13 14 16 18 18 16 15 20 24 24 25 25 23 18 16 20 19 15 10 4 3 5 4 4 4 4 4 6 6 8 15 22 17 13 14 15 15 13 21 21 10 15 10 6 20 18 27 35 30
17 16 16 16 15 15 15 15 16 16 16 16 16 16 16 16 17 17 17 18 18 18 18 18 17 17 16 17 18 19 20 20 22 25 24 14 11 16 17 16 17 19 21 21 21 19 21 27 29 27 26 21 16 16 14 14 16 11 3 2 6 5 4 5 4 2 2 10 11 14 24 23 18 21 21 13 11 18 14 10 15 14 16 19 22 32 33 31
18 17 17 17 17 17 17 17 17 17 17 17 17 17 17 17 17 17 18 18 18 19 18 18 17 17 16 17 17 18 19 20 25 24 13 6 7 14 17 21 25 24 24 23 21 19 18 22 29 27 23 17 15 15 12 11 12 13 7 3 8 7 5 11 12 9 3 14 13 11 23 22 21 26 22 14 14 15 11 15 17 18 24 25 30 35 32 34
18 18 18 17 18 17 18 18 18 18 18 18 18 18 18 17 17 17 18 18 19 19 19 18 16 16 16 16 16 16 17 18 20 12 2 3 4 10 15 23 31 29 26 22 18 17 14 17 27 28 19 12 15 13 10 12 9 10 10 6 7 4 5 16 18 15 6 16 17 14 19 16 23 26 22 20 14 7 11 24 27 26 32 34 36 35 34 35
20 19 19 18 18 18 18 18 18 19 19 19 19 19 19 18 18 18 18 18 19 19 20 19 16 16 16 16 15 14 13 10 6 1 1 4 4 5 14 24 33 31 25 20 17 17 14 17 26 25 15 9 10 9 11 19 14 6 10 14 11 4 5 15 17 19 12 15 18 15 17 18 24 21 24 28 14 11 22 30 33 34 38 40 41 38 37 36
20 20 20 20 20 20 19 19 19 19 19 20 20 20 20 20 19 18 18 18 18 19 20 19 17 15 16 15 15 13 7 4 6 3 5 3 4 3 11 27 32 28 22 18 16 18 17 18 23 21 13 7 8 9 11 19 18 8 9 12 13 9 9 17 18 21 18 12 16 14 18 24 23 15 28 33 19 23 32 33 33 34 39 42 42 41 39 38
21 21 21 21 20 21 21 21 20 20 20 20 20 21 21 21 20 19 19 18 19 19 19 19 17 15 15 14 15 13 10 15 14 8 9 3 3 2 13 27 29 24 21 19 17 18 19 20 23 20 12 6 7 12 15 14 15 11 9 8 12 15 16 24 24 24 23 12 19 21 18 22 21 14 25 26 15 22 30 33 34 34 40 42 41 41 41 40
22 22 22 22 21 22 21 21 21 21 21 21 21 21 21 21 20 20 19 19 19 19 20 19 17 16 15 13 13 12 15 20 12 4 12 8 6 6 16 25 24 21 20 19 20 19 20 22 23 19 10 9 8 9 13 10 10 11 10 10 14 18 21 26 26 24 26 19 19 22 17 22 27 20 22 20 12 21 30 32 34 36 40 41 41 41 40 40
22 22 22 22 22 22 22 22 22 22 21 22 22 22 22 21 21 20 19 20 19 18 20 18 17 16 14 13 10 10 16 16 7 3 14 12 9 11 18 23 21 20 19 18 20 20 22 23 24 21 9 9 11 9 8 5 6 9 13 15 15 18 24 27 22 21 26 23 16 17 14 21 25 18 14 16 19 26 32 34 36 39 40 40 40 40 40 41
22 22 22 22 22 23 23 23 23 23 23 23 22 22 22 21 21 21 20 20 19 19 19 17 17 16 14 13 6 6 14 12 5 2 9 12 11 14 19 21 19 19 18 18 19 21 23 22 24 24 12 8 9 12 10 7 7 9 14 16 16 20 27 26 19 21 25 22 19 16 11 16 21 15 6 12 26 31 34 36 38 41 41 41 40 39 41 41
22 22 22 22 22 23 23 23 23 23 23 24 24 23 22 21 20 20 21 20 20 19 19 18 17 15 15 13 11 11 15 14 8 3 7 8 9 15 21 21 19 18 17 17 18 19 20 19 21 20 12 9 9 11 12 12 12 14 15 12 14 19 23 23 16 18 19 16 22 18 8 10 16 12 9 21 33 35 38 38 39 42 41 40 39 39 40 40
23 23 23 22 22 22 23 23 23 23 24 24 24 23 22 21 20 20 20 20 19 19 19 18 16 16 15 16 24 22 14 11 11 8 7 5 5 11 18 22 21 19 17 17 17 16 15 17 20 18 12 9 6 6 9 12 11 12 11 7 10 10 12 16 12 14 15 10 19 19 7 6 11 9 17 32 37 38 40 38 38 39 39 39 38 39 40 40
24 24 23 23 23 23 23 23 22 23 23 24 24 22 22 21 20 19 19 18 19 19 19 17 16 16 13 18 29 27 17 14 16 16 14 11 9 9 14 21 24 22 19 17 15 15 15 16 20 24 21 11 4 6 10 15 12 9 5 3 6 7 7 12 8 11 15 12 25 22 4 7 8 8 24 35 38 38 36 36 37 36 36 38 37 39 40 40
26 25 25 24 24 25 25 24 23 23 23 23 22 21 21 20 19 17 16 16 17 18 18 16 15 14 14 22 29 26 22 23 24 24 21 18 15 13 13 17 22 25 23 20 17 15 15 17 20 22 22 19 14 13 13 13 8 4 3 3 2 3 8 10 4 6 10 14 32 22 5 8 6 9 27 35 39 39 33 34 36 34 35 36 37 38 41 41
26 27 26 26 25 25 26 26 25 23 23 22 21 20 19 17 15 13 12 13 13 15 15 14 14 12 13 24 27 21 19 21 23 22 21 21 20 18 17 17 19 22 24 23 20 17 15 16 19 16 13 17 16 11 7 5 4 1 2 4 2 3 7 9 5 8 10 11 27 19 3 6 4 11 28 34 38 39 34 34 35 35 34 36 36 38 40 41
27 27 27 27 27 27 27 27 26 25 23 22 21 18 15 12 10 10 9 8 7 9 10 10 12 10 8 15 16 14 15 17 17 15 18 22 24 24 21 19 19 19 22 23 20 20 17 15 18 16 11 9 7 4 4 5 4 2 3 4 4 4 5 7 7 7 14 11 16 14 4 3 3 13 28 32 36 35 32 33 35 35 35 36 36 36 39 39
28 27 28 28 28 28 27 27 27 25 23 22 20 14 11 10 8 6 3 4 6 4 5 6 7 7 11 13 11 10 12 11 10 10 14 19 25 27 23 21 21 20 21 22 23 21 17 14 13 11 10 6 3 5 3 6 6 3 2 3 4 5 4 5 6 5 11 12 12 11 6 5 6 16 27 31 34 32 29 31 34 35 35 36 36 35 37 38
29 28 28 28 29 29 27 27 27 26 23 21 18 13 9 8 7 3 0 6 10 4 3 6 7 2 11 16 14 13 9 6 5 7 10 13 20 27 27 24 23 21 18 17 19 19 16 12 9 4 4 5 4 6 6 7 5 3 4 4 4 3 5 7 4 4 5 12 14 11 6 6 8 15 24 31 34 31 30 33 34 35 35 36 36 36 37 39
30 30 29 29 29 29 28 27 26 27 25 18 14 11 7 8 6 3 3 11 11 4 5 8 12 5 8 11 12 12 10 8 7 10 12 10 15 25 28 26 24 21 12 6 9 14 13 6 6 7 5 7 6 7 9 6 3 5 6 4 4 4 6 7 5 3 4 8 11 12 10 8 10 15 19 27 32 29 28 30 31 32 34 35 35 37 38 40
32 32 31 30 29 29 28 27 27 28 23 16 14 10 7 12 6 3 14 25 21 15 16 17 20 20 22 21 18 15 14 13 12 12 12 10 14 23 28 25 20 16 9 5 6 10 13 6 6 9 6 6 6 6 8 7 7 8 5 5 6 5 8 9 4 3 4 5 7 11 11 10 15 17 17 25 28 23 22 24 27 30 32 34 36 37 40 43
33 33 32 32 30 30 28 26 28 25 19 17 16 10 11 14 7 7 23 29 24 19 22 27 27 31 35 34 30 23 18 16 15 16 13 10 14 19 24 21 11 8 8 8 7 6 10 8 9 8 6 7 7 6 7 7 8 8 6 6 7 5 9 11 4 3 3 4 7 7 7 9 15 17 17 23 22 19 24 25 27 32 33 35 38 39 43 45
33 33 33 33 30 31 27 27 28 19 16 17 12 10 13 14 9 11 16 18 26 26 26 31 32 37 40 38 36 30 19 14 17 21 17 14 19 18 18 18 9 6 7 7 6 4 6 9 10 7 6 6 6 6 7 7 7 7 6 5 7 7 7 9 6 5 4 4 5 5 6 9 12 16 17 22 22 24 33 35 35 38 36 36 38 40 43 42
33 33 34 32 32 32 27 29 23 12 16 16 5 9 14 14 12 14 12 12 25 29 27 31 33 39 41 38 35 28 20 15 17 24 20 17 23 23 19 14 9 7 7 8 9 7 6 8 8 8 7 7 6 6 6 6 6 5 6 4 8 9 4 5 5 2 2 3 5 6 6 5 7 9 12 21 26 27 33 37 36 39 41 42 45 45 44 42
32 32 33 32 33 31 29 27 15 9 20 13 1 8 14 14 13 16 15 9 13 18 21 26 28 34 38 31 24 24 26 21 18 24 24 20 23 23 19 16 11 8 8 10 12 11 8 5 8 10 7 9 9 8 6 6 5 5 7 6 9 12 7 6 4 6 5 4 2 5 3 1 6 9 9 16 21 20 24 28 28 34 40 43 45 45 46 46
31 31 32 33 33 32 30 23 11 15 21 7 2 10 13 13 12 15 13 6 7 10 12 14 17 25 27 20 17 22 23 20 25 30 26 24 25 18 13 17 13 8 11 11 10 11 10 7 10 10 8 10 10 9 8 7 5 7 9 10 13 13 8 6 4 6 5 6 3 5 3 4 6 13 13 12 13 14 17 21 25 32 35 36 38 40 43 45
29 29 31 33 33 33 31 22 16 23 21 5 6 13 12 11 10 11 6 2 5 5 3 4 9 10 11 16 20 18 9 13 29 37 27 22 27 20 9 10 9 9 12 8 5 5 7 8 9 9 10 11 10 9 10 8 5 7 7 9 12 12 9 7 3 3 2 5 5 3 4 4 5 11 15 13 14 17 16 17 23 30 33 35 37 39 42 43
27 27 28 31 32 34 33 27 24 25 19 12 14 15 12 10 8 7 3 2 5 4 4 4 6 3 5 17 26 18 3 6 15 30 34 25 24 24 11 6 6 7 9 5 4 4 6 10 10 10 11 10 10 10 9 9 7 8 4 4 9 9 9 9 4 3 5 5 6 4 3 3 4 9 15 15 17 17 16 16 19 26 33 37 39 40 43 45
25 25 26 28 29 32 33 30 27 24 19 18 20 17 11 9 7 2 2 2 3 2 3 3 3 2 6 18 31 19 1 6 7 18 37 29 21 21 12 9 9 7 9 9 7 5 8 12 13 13 11 8 9 9 9 11 9 9 4 4 8 9 8 7 4 5 5 4 7 7 4 4 4 6 11 14 16 16 18 19 18 24 34 38 39 41 44 46
25 24 25 27 27 28 31 30 27 23 20 20 19 15 10 7 4 2 2 2 3 1 1 3 3 3 9 16 25 17 2 2 1 9 30 29 23 17 8 10 11 7 11 12 9 5 6 15 18 14 11 9 8 8 10 12 10 8 5 6 8 7 6 5 5 5 3 3 9 10 5 4 6 4 8 10 13 16 18 18 18 25 36 39 40 43 44 45
27 24 26 28 28 28 30 29 24 20 19 20 17 12 8 4 1 3 3 3 3 3 1 3 2 3 10 10 10 13 6 4 4 8 22 23 24 17 5 9 10 5 6 9 11 8 4 12 17 12 10 11 9 9 11 13 13 7 4 5 7 6 4 1 3 4 2 4 10 12 8 7 6 5 7 10 13 17 16 15 17 23 32 38 41 43 44 45
29 26 26 29 30 29 28 25 20 16 17 18 15 11 5 2 2 3 6 3 3 3 2 4 6 6 2 3 3 6 6 5 2 8 12 11 15 12 4 7 7 3 4 7 10 9 6 7 7 7 13 15 9 9 10 11 13 8 4 5 5 5 4 3 1 3 5 8 8 11 9 9 9 6 6 11 16 20 19 18 19 20 27 38 42 44 46 47
32 28 26 29 28 22 20 21 17 13 13 13 12 7 1 0 1 4 4 4 3 1 4 3 5 7 5 4 3 5 4 4 2 6 9 9 9 10 8 7 7 6 6 8 6 5 7 8 5 5 13 15 10 7 8 7 10 9 5 5 4 3 3 5 5 2 5 8 6 8 9 7 9 7 8 13 17 19 19 21 24 25 31 40 44 46 47 46
33 30 27 28 24 13 13 21 17 9 7 6 5 2 2 2 4 5 4 4 1 3 6 5 8 9 6 4 3 5 5 3 4 3 8 11 9 11 12 9 8 7 5 6 5 3 3 6 7 7 8 12 12 8 7 6 7 9 7 6 6 5 5 6 5 3 4 6 5 7 7 4 5 6 10 15 17 22 25 28 32 33 39 45 47 48 47 46
34 31 29 27 18 7 11 21 20 10 4 3 3 2 2 4 4 2 5 6 3 5 7 8 11 9 4 3 4 4 3 5 6 4 5 9 8 9 10 9 9 6 3 4 4 6 6 5 8 11 7 10 13 11 9 7 6 9 7 7 7 6 5 4 3 3 5 6 5 3 5 5 5 6 11 15 18 25 32 37 40 39 42 46 45 43 43 44
35 30 28 28 16 6 13 24 23 11 4 4 3 3 5 5 3 1 2 3 4 6 9 10 7 5 3 3 4 2 3 3 6 6 5 7 9 9 9 10 11 7 4 4 3 5 9 8 7 10 8 10 12 10 9 8 5 7 6 7 9 7 5 3 4 6 4 4 4 3 3 5 5 5 8 13 17 21 28 35 36 34 36 37 33 34 39 44
34 28 28 26 12 7 19 26 22 10 5 3 2 4 5 3 1 1 1 3 3 7 11 8 3 3 4 3 3 7 9 6 1 3 4 6 8 10 9 7 11 12 8 6 4 2 6 8 3 4 6 10 13 10 10 10 6 3 5 8 7 7 7 6 5 3 2 4 5 2 3 4 3 6 6 8 12 14 18 22 24 27 30 29 28 33 40 44
33 31 32 18 10 17 27 25 19 8 5 3 3 5 3 1 1 1 1 2 3 7 7 5 3 2 3 3 3 7 10 7 4 4 2 4 4 8 10 8 10 14 12 8 5 3 4 6 4 8 9 13 15 11 8 11 10 5 5 8 4 3 6 5 3 4 4 6 6 2 5 5 3 5 4 6 9 11 13 15 17 23 24 22 26 35 41 46
32 35 28 9 12 29 29 21 15 6 6 2 4 4 1 1 3 4 4 4 4 4 4 1 2 2 2 3 4 7 10 6 4 7 3 3 2 2 4 6 8 13 17 14 6 3 6 5 6 9 12 11 10 9 6 8 12 8 5 7 6 4 6 4 4 6 6 6 6 3 3 5 5 5 4 7 9 11 12 14 15 17 17 19 26 34 40 45
30 30 18 9 20 29 23 19 11 8 7 1 4 4 2 3 6 9 11 9 3 2 2 2 3 2 3 4 5 6 6 4 5 5 2 3 2 4 9 7 3 7 14 18 10 4 6 5 6 6 10 9 5 6 7 8 10 6 2 5 5 4 6 6 4 4 4 4 5 3 2 5 6 6 7 9 11 12 12 12 13 15 19 25 30 34 39 43
28 20 12 16 27 25 20 14 5 10 4 2 3 3 4 4 6 10 14 10 2 1 2 2 3 4 3 5 7 6 4 4 5 3 2 4 2 4 12 11 6 10 10 12 13 8 4 4 6 5 4 7 4 5 10 10 9 7 5 6 6 3 2 4 3 2 4 4 3 3 5 6 5 5 9 10 10 11 12 12 13 16 23 31 35 38 41 43
24 9 10 23 28 24 22 8 5 3 1 2 2 4 6 7 7 11 16 14 7 4 4 4 4 5 5 6 6 5 4 4 5 3 3 4 3 3 10 13 9 10 10 5 7 8 4 3 6 7 5 6 5 7 11 13 11 9 8 7 8 5 3 4 5 2 2 5 5 5 7 8 5 5 8 9 9 10 12 13 12 15 24 31 37 43 44 44
15 6 16 26 26 25 22 7 1 4 1 2 6 6 8 8 7 9 12 13 9 5 6 5 5 6 5 4 3 3 4 3 4 3 3 1 4 4 11 22 18 11 7 4 4 4 3 3 8 9 8 7 9 10 11 13 13 10 9 8 7 5 5 6 7 4 2 4 2 3 6 9 6 6 8 9 10 10 11 12 11 16 27 33 37 44 45 45
11 16 25 26 23 23 16 3 3 6 2 8 12 10 10 7 6 8 8 7 8 5 4 3 3 2 1 1 2 3 4 2 1 2 2 3 6 8 16 27 23 13 8 4 5 11 9 3 6 7 6 5 7 7 5 6 9 9 9 8 8 7 7 7 6 5 4 5 2 2 6 7 5 5 7 8 7 5 7 14 15 17 26 33 37 41 42 43
18 24 23 20 22 17 9 3 4 6 6 10 11 10 10 7 6 8 7 7 6 4 4 3 3 3 2 2 2 1 3 2 1 5 5 3 4 10 21 28 21 11 8 7 7 7 5 3 2 3 5 6 5 5 5 5 6 4 6 9 12 14 11 6 2 3 4 6 7 5 7 5 4 3 3 5 5 4 5 13 18 18 22 29 34 35 35 36
18 16 11 18 21 12 7 6 6 5 7 10 10 9 9 8 8 9 9 8 6 5 5 5 6 5 2 3 3 1 2 2 1 5 5 4 5 7 17 23 17 9 9 13 14 7 3 3 3 4 7 9 7 6 7 5 4 4 5 10 14 17 16 8 3 4 6 5 6 7 6 4 6 6 4 7 7 8 8 11 15 19 22 26 31 34 35 34
11 6 5 15 18 9 7 10 9 7 7 8 8 7 7 9 9 10 8 5 7 10 7 6 6 4 3 5 4 3 2 2 2 5 5 5 4 4 14 19 13 11 16 20 20 10 2 2 4 5 6 7 6 7 6 7 7 9 11 12 12 14 17 12 6 6 6 4 6 8 5 3 5 6 6 8 7 9 11 9 10 17 21 23 28 34 36 36
5 3 3 8 10 8 8 9 10 9 8 8 5 5 8 10 9 8 5 4 10 12 6 4 6 6 5 6 4 3 3 3 4 4 3 4 4 5 11 12 9 14 19 18 18 10 1 3 5 5 7 7 8 13 10 9 12 14 13 14 13 12 14 15 12 9 9 7 9 8 7 6 7 7 8 8 8 9 9 7 9 16 21 22 25 30 33 35
3 5 7 7 5 4 5 7 10 10 9 9 5 5 8 9 7 7 6 6 12 10 4 4 7 9 9 9 4 2 5 5 3 2 2 4 5 7 8 5 4 15 18 13 12 8 1 4 4 7 13 13 11 14 13 11 12 13 14 16 14 13 15 17 16 11 11 10 12 9 10 11 9 8 9 9 10 10 10 10 13 17 21 22 24 26 29 32
5 6 9 7 3 5 9 13 14 11 8 8 5 4 8 8 8 7 5 6 9 8 5 3 6 10 11 10 6 2 3 4 3 2 3 5 6 6 6 3 3 12 15 10 8 6 2 4 6 10 14 15 14 14 13 12 11 10 13 16 16 16 18 18 17 14 14 15 12 9 13 13 10 10 11 13 16 13 9 9 11 14 17 20 23 25 29 31
6 6 8 7 5 9 13 12 9 7 7 7 4 4 6 7 8 8 7 6 6 7 6 4 7 10 9 8 7 5 5 5 6 6 4 4 5 4 2 2 2 7 10 6 5 5 3 4 8 10 10 11 13 11 9 11 13 12 11 12 15 17 19 19 16 12 11 13 9 8 11 10 8 8 10 14 16 10 5 7 9 11 13 17 21 25 30 32
9 9 10 8 6 7 8 6 5 4 5 4 3 4 6 7 9 9 8 8 9 7 6 7 10 10 8 7 7 8 9 8 9 10 8 7 7 5 3 3 4 6 6 4 3 3 2 3 6 7 6 8 8 8 12 13 12 13 14 14 16 16 15 14 13 11 11 13 10 7 7 8 8 7 7 9 9 5 5 8 12 14 14 15 20 22 26 31
10 11 10 6 4 4 4 4 4 3 3 3 4 6 7 8 11 9 6 7 7 8 12 12 10 8 7 8 8 10 14 15 16 18 17 15 14 12 12 12 9 7 4 3 3 2 1 2 5 5 4 7 10 11 14 12 7 10 16 18 17 14 13 11 10 11 14 15 12 10 10 10 9 6 6 8 10 9 10 9 10 12 11 13 18 21 22 27
Wind_Direction
338 336 334 330 326 323 321 318 315 312 311 308 307 307 306 306 306 305 305 304 303 302 300 301 302 304 304 299 295 293 291 288 286 281 273 271 274 274 263 244 226 214 214 211 210 201 187 185 185 186 184 184 195 206 206 210 215 210 197 219 248 252 226 220 220 192 157 156 169 164 157 146 155 162 149 151 143 143 150 144 160 175 175 166 168 166 165 163
339 337 334 332 329 326 324 321 318 316 313 310 308 307 305 305 304 303 303 303 302 301 300 300 302 305 305 300 299 299 295 294 291 281 277 281 274 259 242 222 216 212 209 207 209 206 195 187 183 183 184 190 205 209 208 210 212 210 200 223 235 239 218 238 252 249 160 159 168 170 161 156 163 160 151 147 137 144 140 129 143 133 138 153 159 163 165 164
339 337 335 333 330 327 325 322 321 318 315 313 309 307 305 303 303 302 301 301 301 300 298 298 302 305 304 301 302 303 304 304 296 288 284 283 248 242 230 207 203 205 206 207 210 214 213 196 182 179 182 197 213 208 209 207 205 204 208 249 242 242 258 277 271 270 240 161 163 167 163 160 162 159 154 151 150 158 154 147 148 139 145 153 158 164 166 167
339 337 335 333 329 327 324 322 321 318 317 314 312 309 305 303 302 300 299 299 299 298 297 297 300 303 303 302 304 307 312 313 299 292 288 282 269 246 229 203 198 199 201 208 214 213 221 206 186 181 183 209 224 220 224 218 208 192 200 225 236 228 245 270 272 275 259 161 165 163 160 160 162 162 155 149 147 174 188 173 171 162 157 157 161 166 168 170
340 338 335 332 329 327 324 322 319 317 316 313 312 309 306 304 301 300 299 298 297 296 295 294 298 301 301 301 304 306 318 330 299 210 45 313 336 260 219 199 196 195 196 203 207 200 208 205 187 183 191 217 227 235 239 224 221 211 220 228 237 237 235 267 276 282 273 164 163 162 162 164 163 167 161 156 158 191 195 187 179 171 166 164 165 168 170 173
341 340 337 334 330 328 325 322 319 317 314 311 310 307 305 303 301 301 299 297 295 293 292 291 295 298 298 299 302 302 301 272 250 260 305 318 28 328 198 191 190 189 192 191 191 193 195 190 182 186 196 216 217 224 237 224 219 237 253 239 246 247 247 269 271 277 272 175 165 178 172 164 161 176 174 170 180 192 190 185 180 176 172 168 167 169 172 176
341 340 337 335 332 329 326 323 320 317 314 311 308 305 303 301 300 299 297 297 293 291 289 288 293 294 295 297 295 295 264 258 275 285 272 255 62 10 175 181 184 185 189 186 185 193 196 185 183 190 193 215 220 225 239 231 216 228 259 260 261 253 246 260 260 263 265 216 181 183 172 167 171 179 180 182 194 189 182 179 178 174 170 167 167 171 174 178
340 338 336 335 332 330 327 324 321 318 315 311 309 305 302 299 298 296 295 294 290 289 286 285 290 290 291 292 292 295 269 271 299 263 222 195 137 165 171 177 183 188 191 192 192 196 200 191 191 195 192 217 215 228 239 235 226 228 251 266 268 262 256 260 258 251 254 243 194 177 176 184 183 174 177 191 191 175 172 172 172 168 167 168 170 173 176 179
338 336 335 334 331 330 327 325 322 319 316 311 308 304 302 299 296 294 291 289 287 285 282 283 285 285 286 284 285 290 274 276 319 218 205 193 171 174 178 182 189 198 203 208 207 203 202 199 202 199 198 233 233 254 245 219 233 223 236 252 262 268 268 267 262 241 239 238 200 171 187 194 184 169 173 189 174 166 167 167 168 167 168 171 172 175 178 180
337 335 333 332 330 329 326 324 322 320 317 312 308 305 302 300 297 292 287 284 283 281 280 279 279 280 279 274 255 257 266 265 299 269 200 204 201 187 188 190 192 200 206 213 213 209 208 212 214 208 223 261 246 257 247 229 253 250 250 255 258 263 266 267 261 240 230 227 207 179 186 193 178 168 172 180 167 164 163 163 167 168 171 174 175 177 180 182
338 335 333 331 329 327 325 323 321 320 317 312 309 307 306 304 300 292 283 279 278 280 278 275 275 272 271 259 223 232 261 259 251 217 177 195 208 201 198 195 196 201 204 209 213 217 220 226 221 210 226 246 245 268 262 250 259 267 270 274 268 264 265 264 256 235 223 222 208 180 150 174 177 185 182 168 166 167 164 162 168 170 173 176 177 179 181 184
341 337 334 332 330 327 325 322 320 318 315 311 309 310 313 310 301 290 279 276 277 279 276 275 271 265 266 252 240 243 258 257 238 220 207 210 223 215 208 207 208 211 214 216 219 226 228 230 219 203 207 221 238 273 274 274 278 275 273 280 278 284 277 263 256 225 210 206 185 158 107 175 191 208 175 166 166 167 164 163 169 172 174 176 178 181 183 185
343 340 338 335 333 330 327 324 320 317 313 310 311 315 318 310 299 289 280 277 276 277 276 273 269 263 257 248 251 254 252 253 252 245 244 253 249 226 215 218 221 222 227 232 232 233 233 232 220 212 218 225 245 258 283 305 311 296 273 241 277 318 295 265 266 218 204 177 160 154 160 205 210 200 168 166 165 163 163 165 170 174 177 177 179 182 184 186
343 342 340 338 336 333 330 327 323 319 314 312 315 321 319 309 300 293 285 280 276 275 274 267 265 259 244 249 261 266 260 256 256 246 241 249 246 227 218 222 227 229 232 240 244 240 237 235 226 225 230 234 251 273 296 311 306 299 281 253 261 286 275 278 301 193 197 167 159 163 217 207 218 186 168 169 167 163 164 168 172 176 180 180 180 183 185 187
343 342 340 339 338 335 333 330 326 321 315 315 321 325 319 311 308 304 292 282 277 273 268 261 256 246 250 263 268 273 267 255 250 242 235 237 232 222 215 213 224 230 231 238 241 238 239 231 219 221 234 237 245 270 303 305 295 309 250 280 280 211 264 295 311 185 187 167 163 168 217 207 213 178 172 172 170 166 165 170 175 178 182 183 183 184 186 189
344 342 341 340 338 337 336 333 329 323 317 320 326 328 323 318 317 314 303 293 288 272 260 253 245 236 259 279 275 264 255 246 245 240 230 226 221 217 208 208 222 229 232 234 232 233 237 225 213 216 224 227 219 222 289 294 300 326 204 247 248 224 271 303 318 207 184 166 171 179 177 189 196 177 177 175 173 170 167 172 176 179 184 185 186 187 187 189
344 343 342 341 339 338 338 336 333 324 319 326 331 331 323 323 329 325 342 23 1 307 249 228 220 236 253 263 268 253 248 253 256 246 231 220 216 214 205 208 221 226 232 235 234 236 233 214 205 218 219 204 153 160 238 257 256 294 233 242 239 225 260 272 320 279 189 169 183 189 167 180 180 171 177 178 177 173 170 175 178 180 184 186 188 189 188 189
343 342 341 341 339 338 338 339 336 326 323 331 340 335 313 323 342 310 153 12 357 343 246 200 164 210 260 251 253 251 257 263 240 227 226 217 212 211 205 206 214 219 226 235 239 235 228 212 193 206 219 197 177 172 209 233 217 239 229 242 270 248 255 243 268 304 198 180 187 186 178 190 173 167 177 182 180 178 178 178 179 182 184 187 190 190 191 191
342 341 340 339 338 337 338 341 338 332 328 332 345 337 304 325 329 242 272 323 319 281 255 209 177 197 274 259 252 254 263 256 232 218 214 210 205 204 203 204 210 214 207 209 235 219 207 203 190 208 220 202 200 195 212 233 214 228 224 219 256 260 264 248 243 272 213 193 196 191 189 184 168 173 180 183 184 183 183 179 180 184 185 188 190 192 194 194
340 340 339 338 337 335 337 341 339 337 337 341 350 352 359 357 342 269 316 310 294 273 269 252 228 240 260 262 260 266 272 268 260 233 217 220 202 194 198 201 207 210 191 169 215 201 187 196 216 210 208 198 207 207 209 228 237 244 248 245 251 250 268 263 239 258 217 189 221 208 196 186 174 180 182 181 184 186 185 182 183 186 187 190 192 195 196 198
339 338 338 338 336 334 335 340 337 338 348 352 356 23 39 16 2 319 321 310 297 281 269 266 254 249 258 260 259 268 281 283 265 228 210 217 201 187 191 193 191 204 197 188 197 188 183 212 230 205 187 190 199 201 199 219 235 244 249 260 270 245 260 270 247 241 208 179 242 220 191 202 184 181 182 177 183 191 188 184 186 189 190 193 195 197 198 201
337 336 337 336 335 334 335 339 336 338 354 351 360 43 33 10 354 325 320 298 293 288 272 271 263 254 258 260 259 262 269 277 261 232 210 198 198 187 181 184 184 191 190 187 193 195 205 228 228 194 174 185 202 203 195 216 229 238 241 249 271 253 264 283 260 219 193 182 237 189 171 220 200 183 182 181 188 194 192 189 188 189 190 194 196 198 200 201
336 335 335 334 333 332 333 338 338 344 354 347 4 34 11 356 343 329 319 281 287 288 270 263 256 250 252 253 252 248 239 240 246 235 215 189 192 188 176 177 189 186 175 186 195 196 216 231 211 179 170 185 218 223 198 226 235 229 233 223 256 254 247 275 272 257 213 206 213 178 168 211 205 194 194 193 196 196 196 195 193 191 191 194 197 198 199 198
336 335 334 333 331 328 331 339 341 347 350 346 350 4 354 344 338 336 328 285 279 284 270 262 251 247 247 246 241 223 217 223 226 226 213 189 183 184 182 181 179 185 191 194 198 207 227 222 176 171 180 188 215 231 204 223 247 239 233 217 244 252 226 227 285 356 334 285 207 149 127 197 184 194 209 204 204 204 200 199 200 201 200 199 198 199 199 198
336 335 333 331 330 326 328 338 338 339 348 355 277 333 338 333 336 345 337 295 277 279 275 264 241 243 243 234 223 209 210 222 223 221 214 199 189 177 181 185 177 195 200 188 195 218 235 210 167 176 195 196 210 229 212 204 235 258 243 222 236 252 245 242 311 4 340 302 270 139 144 264 199 192 206 201 202 210 203 200 206 207 206 206 203 201 201 200
336 335 333 330 330 327 328 337 335 336 347 344 304 321 323 325 332 342 344 318 294 265 248 233 214 232 224 198 192 183 187 236 230 223 217 209 199 184 172 180 179 200 191 177 198 225 221 187 168 184 199 201 212 227 216 193 210 252 239 218 236 252 257 258 294 354 280 270 272 168 167 244 213 200 208 197 198 207 202 203 209 208 208 209 208 205 203 202
337 336 332 328 329 330 331 333 328 333 342 327 318 323 321 322 321 328 357 353 297 214 157 190 198 195 185 178 171 158 137 233 221 221 214 206 198 192 188 175 175 193 171 153 220 211 176 177 182 193 193 200 214 221 209 183 203 243 218 195 243 251 253 253 234 222 243 261 281 267 183 218 221 208 207 197 202 209 206 208 210 209 210 210 210 208 205 204
339 336 331 325 326 330 329 326 325 330 332 322 322 324 325 320 306 316 82 328 286 174 146 194 190 164 170 169 170 169 170 151 153 219 210 199 188 187 197 195 175 176 168 170 213 200 163 180 190 192 195 208 212 212 201 185 212 244 203 195 244 247 245 244 209 217 242 257 273 263 201 216 265 229 204 198 202 208 210 212 210 210 212 211 211 210 208 207
340 337 332 324 321 325 325 326 330 327 320 317 320 322 330 322 305 77 117 259 284 307 128 169 165 151 149 159 182 199 248 142 112 203 194 193 191 186 202 203 176 165 182 190 211 202 172 193 194 189 201 216 208 206 199 194 219 236 205 219 253 256 244 222 190 203 211 207 247 253 202 199 270 247 192 197 205 209 212 213 212 212 212 212 211 211 210 209
340 339 334 324 323 327 326 331 335 323 311 312 317 325 338 332 56 98 200 235 289 286 129 121 67 119 141 146 202 230 249 297 345 149 172 186 193 194 208 191 174 158 188 206 216 214 209 202 196 191 206 209 200 206 205 203 216 216 180 224 262 274 270 251 172 160 178 228 240 243 209 186 252 256 189 194 201 205 209 212 217 215 214 215 213 211 210 209
339 337 333 327 328 332 331 336 340 324 308 309 316 326 334 343 80 156 215 260 302 267 58 55 29 39 125 175 241 241 249 291 350 138 161 174 184 196 198 170 170 154 193 225 224 218 226 217 201 196 204 200 191 208 213 208 213 212 168 186 240 282 297 297 260 139 210 237 236 234 213 192 230 251 209 204 201 202 205 207 211 213 214 215 214 213 211 209
339 335 330 326 331 338 341 344 340 320 305 305 311 319 336 46 239 210 241 329 336 299 19 25 4 355 308 285 272 218 224 260 224 160 171 173 177 194 194 184 174 169 203 220 213 200 217 225 228 221 207 195 184 201 217 211 208 209 190 167 187 250 265 242 232 199 225 244 237 213 200 202 230 235 212 207 203 204 208 209 209 207 211 214 213 212 211 210
338 336 329 327 335 342 347 351 345 317 296 292 286 317 85 173 228 212 236 286 330 48 27 2 328 313 279 291 284 203 190 230 224 194 188 182 183 197 202 201 183 175 191 199 187 172 236 246 224 227 224 195 182 183 205 214 202 201 195 175 183 204 218 224 237 261 253 259 251 201 184 213 253 237 209 204 203 204 207 213 215 212 211 213 213 211 209 209
338 338 327 327 340 337 339 354 349 324 282 228 198 123 129 208 240 216 217 257 316 29 24 349 321 304 257 245 251 187 184 233 207 181 190 184 188 202 204 204 196 183 129 143 185 187 213 253 214 209 207 183 192 198 191 181 188 205 192 174 197 201 193 206 209 221 242 262 262 197 172 198 215 221 206 199 204 205 204 210 216 217 215 214 214 209 207 209
339 338 328 330 339 328 341 349 343 327 250 203 163 168 198 211 246 267 226 294 328 356 351 332 312 312 317 267 268 16 19 275 206 186 190 186 195 202 199 200 196 184 145 170 210 187 207 243 232 213 199 176 197 207 177 159 193 213 169 173 212 192 168 221 214 185 194 256 256 204 203 214 215 244 218 198 206 206 205 210 213 216 217 215 213 208 206 210
339 338 333 340 352 343 344 342 335 320 233 213 161 202 227 222 206 242 351 5 337 334 338 333 341 7 340 305 324 12 12 348 281 217 208 193 205 204 199 203 193 191 186 188 206 153 197 239 230 190 212 202 202 195 174 175 188 177 162 192 207 172 177 226 245 214 175 249 254 203 233 264 266 270 244 199 207 209 209 213 212 216 214 207 206 206 207 210
342 338 336 354 27 349 340 336 327 298 224 209 196 220 250 266 268 276 15 20 343 337 348 353 357 353 330 323 338 6 359 345 2 359 267 207 221 206 202 212 198 198 197 194 223 185 176 256 237 174 213 229 211 200 200 192 176 158 193 195 161 165 209 204 212 245 231 244 270 229 220 235 214 250 249 182 200 216 215 213 215 219 212 200 204 207 208 210
339 334 334 7 11 342 335 331 319 255 190 197 238 252 271 250 313 327 324 349 352 337 355 336 269 287 9 349 322 352 355 342 6 5 317 256 294 222 212 224 206 205 201 194 225 223 177 255 268 195 203 223 204 198 237 228 207 208 200 173 152 187 216 185 181 223 220 236 271 273 237 226 204 226 225 189 200 215 216 214 217 220 211 202 207 209 210 212
338 333 328 352 352 342 334 325 303 195 167 204 231 251 282 265 295 299 303 323 330 278 302 231 237 315 356 337 312 333 345 321 331 348 322 298 319 34 15 351 272 246 219 199 200 211 181 214 262 223 197 200 185 182 211 231 228 229 170 169 179 178 192 193 181 189 196 225 255 265 253 236 223 207 188 193 205 208 211 213 215 218 212 208 209 210 211 212
341 333 311 340 352 346 337 326 228 173 173 236 211 255 298 297 292 291 298 306 293 260 302 269 306 323 313 318 313 311 313 290 297 303 283 318 325 57 25 9 333 318 291 228 208 202 181 198 237 260 211 195 192 189 201 211 215 212 199 199 207 194 184 202 204 172 167 184 205 233 251 251 244 207 184 191 204 206 206 207 212 218 215 211 211 213 213 212
345 328 297 342 356 352 350 1 156 160 262 238 258 273 289 299 291 289 287 284 284 269 252 259 278 272 275 302 301 296 311 295 289 270 229 298 334 45 18 5 333 319 329 302 233 214 200 191 215 239 233 207 212 206 202 206 205 203 207 205 201 192 142 176 238 275 157 183 184 198 249 260 246 201 191 192 199 204 205 204 212 220 219 216 216 217 217 213
344 292 308 344 1 358 0 21 42 4 20 317 336 317 313 311 300 301 291 292 305 279 247 247 250 257 267 289 314 342 352 313 288 284 231 310 52 73 8 1 350 333 343 341 297 306 312 215 208 228 230 216 220 215 204 208 208 204 208 201 187 175 146 180 226 237 197 223 175 154 248 267 251 200 191 196 202 207 202 194 201 218 220 221 221 221 220 217
322 296 316 348 7 3 6 24 358 18 10 338 343 330 326 323 319 336 338 342 345 315 293 284 257 297 346 5 7 353 343 323 276 6 359 0 45 56 18 4 357 355 4 350 339 354 347 269 215 240 255 253 249 248 241 212 200 205 213 196 182 192 189 193 204 181 193 219 160 178 249 267 269 219 205 212 203 195 195 191 199 216 220 223 226 225 224 221
314 305 317 357 12 11 19 15 4 11 339 340 345 330 332 341 340 346 347 340 333 319 327 317 312 356 20 357 356 346 341 339 93 37 22 338 350 26 20 6 356 3 16 355 343 345 332 304 276 249 241 251 261 264 265 228 195 206 217 200 200 203 195 186 152 144 216 211 167 192 236 244 276 289 267 246 209 186 218 207 208 217 220 225 229 230 230 226
324 313 318 354 3 27 54 17 8 0 339 345 341 331 343 343 337 344 335 317 324 345 338 307 311 332 11 8 355 350 9 23 36 10 358 330 328 8 12 359 347 350 352 348 348 332 256 255 270 224 220 229 226 224 224 209 201 221 216 209 209 202 193 185 153 178 228 222 170 191 224 246 286 307 300 264 229 216 239 230 218 221 224 226 228 229 230 228
328 314 309 343 353 20 27 9 15 3 344 350 339 329 343 331 322 338 337 326 356 2 337 296 314 337 33 28 358 319 5 34 355 330 318 333 332 352 359 346 330 341 350 353 354 342 244 237 263 243 244 245 253 258 220 169 186 217 217 217 217 209 200 190 182 195 196 192 203 208 196 211 263 275 270 267 250 230 238 240 229 232 235 233 229 227 226 224
321 299 305 340 345 346 348 2 16 1 339 342 331 306 326 322 316 337 348 350 359 358 328 309 5 23 12 5 348 303 335 337 306 294 301 338 309 308 343 332 317 351 359 357 356 353 332 310 298 285 289 284 290 286 256 195 199 210 211 217 217 211 203 200 209 202 157 171 228 218 182 202 238 250 248 249 250 247 246 239 232 239 244 242 236 230 225 222
287 286 310 327 328 332 338 337 341 340 329 328 317 291 314 320 326 346 352 342 347 356 353 336 7 14 356 347 340 308 335 332 298 295 342 343 318 323 341 324 336 6 5 356 357 5 299 266 301 322 315 307 298 287 268 236 221 206 199 210 213 208 207 209 216 197 163 195 229 206 186 205 222 231 237 237 236 237 234 228 230 238 242 242 238 233 228 224
280 283 304 321 316 295 297 300 312 322 321 320 311 293 314 327 339 345 346 339 333 339 351 336 339 350 344 336 331 314 331 325 297 326 345 328 322 331 333 310 359 14 7 348 346 2 319 275 319 326 315 309 301 287 267 249 241 223 206 203 203 208 211 212 215 201 192 214 223 194 197 212 215 214 221 233 240 239 234 231 226 223 229 234 235 235 236 233
284 282 297 313 299 281 280 285 303 318 313 310 297 290 317 330 337 334 329 321 303 309 338 341 327 332 328 322 321 293 277 281 277 292 307 309 325 334 316 302 346 1 355 333 330 4 11 302 316 323 314 304 299 295 280 253 237 237 233 213 204 210 212 213 212 199 201 222 222 195 205 226 238 221 215 234 245 249 254 253 242 229 230 229 225 229 236 236
287 288 294 300 291 282 278 281 302 305 297 299 297 314 329 326 325 327 311 280 257 266 321 332 324 323 314 310 303 283 286 288 275 280 278 265 275 279 264 290 323 334 337 315 294 336 3 299 307 325 319 296 299 328 326 298 253 235 240 229 212 209 211 215 208 186 189 208 214 209 214 236 247 232 230 251 257 245 229 241 249 251 246 230 221 228 236 235
292 294 298 296 287 293 291 284 286 275 276 306 319 322 321 310 314 325 315 286 274 293 317 318 313 317 313 298 283 284 302 306 294 291 287 270 259 256 255 260 266 267 270 286 281 251 217 279 300 321 315 289 297 319 324 317 279 236 233 225 217 211 208 213 210 196 193 194 202 214 217 229 231 198 200 240 245 240 237 235 248 265 270 252 238 238 242 238